Temperature
3 3 2 2 1 1 0 -1 -2 -2 -1 -1 -1 -1 -2 -2 -1 -1 -1 -1 -1 -2 -2 -2 -2 -2 -2 -2 -2 -2 -2 -1 -1 -1 -0 0 1 1
3 2 2 1 1 0 -0 -1 -2 -3 -3 -2 -2 -2 -2 -2 -2 -2 -2 -2 -2 -2 -2 -3 -3 -3 -3 -3 -3 -3 -2 -2 -2 -1 -1 -0 0 1
2 2 1 1 0 0 -1 -1 -2 -3 -3 -3 -3 -3 -3 -3 -3 -4 -4 -4 -3 -3 -3 -3 -3 -4 -4 -4 -3 -3 -3 -3 -2 -2 -1 -1 -1 -0
1 1 1 0 0 -0 -1 -2 -2 -3 -4 -4 -4 -4 -4 -4 -4 -5 -4 -4 -4 -4 -4 -4 -4 -4 -4 -4 -4 -4 -3 -3 -3 -2 -2 -2 -1 -1
1 1 0 -0 -0 -1 -2 -2 -3 -3 -4 -4 -5 -5 -5 -5 -5 -5 -5 -5 -5 -5 -5 -5 -4 -4 -4 -4 -4 -4 -4 -3 -3 -3 -3 -2 -2 -2
1 0 0 -0 -1 -1 -2 -3 -3 -4 -4 -5 -5 -5 -5 -5 -5 -5 -5 -5 -5 -5 -5 -5 -5 -5 -5 -4 -4 -4 -4 -4 -4 -3 -3 -3 -2 -2
0 -0 -0 -1 -1 -2 -3 -3 -4 -5 -5 -5 -5 -5 -5 -5 -5 -5 -5 -5 -5 -6 -5 -5 -5 -5 -5 -5 -5 -5 -5 -4 -4 -4 -4 -3 -3 -3
-1 -1 -1 -1 -2 -2 -3 -4 -4 -5 -5 -5 -5 -5 -5 -6 -6 -6 -6 -6 -6 -6 -6 -6 -6 -6 -5 -5 -5 -5 -5 -5 -5 -4 -4 -4 -3 -3
-1 -1 -2 -2 -3 -3 -3 -4 -5 -5 -5 -6 -6 -6 -6 -6 -6 -6 -6 -6 -6 -6 -6 -6 -6 -6 -6 -5 -5 -5 -5 -5 -5 -5 -4 -4 -4 -3
-2 -2 -2 -3 -3 -4 -4 -5 -5 -5 -6 -6 -6 -6 -6 -6 -6 -6 -6 -6 -6 -6 -6 -6 -6 -6 -6 -6 -6 -6 -5 -5 -5 -5 -5 -4 -4 -4
-2 -2 -3 -3 -4 -5 -5 -6 -6 -6 -6 -6 -6 -6 -6 -6 -6 -6 -6 -7 -7 -7 -7 -7 -7 -7 -6 -6 -6 -6 -6 -6 -5 -5 -5 -5 -4 -4
-3 -3 -4 -4 -4 -5 -6 -6 -6 -6 -6 -6 -6 -6 -6 -6 -6 -6 -7 -7 -7 -7 -7 -7 -7 -8 -7 -7 -6 -6 -6 -6 -6 -5 -5 -5 -4 -4
-4 -4 -4 -5 -5 -6 -6 -6 -6 -6 -6 -6 -6 -6 -6 -7 -7 -7 -7 -7 -8 -8 -8 -8 -8 -8 -8 -8 -7 -7 -7 -6 -6 -6 -5 -5 -5 -5
-4 -5 -5 -6 -6 -6 -6 -6 -6 -6 -7 -7 -7 -7 -7 -7 -7 -7 -8 -8 -8 -8 -8 -8 -8 -8 -8 -8 -8 -7 -7 -6 -6 -6 -6 -5 -5 -5
-5 -6 -6 -6 -6 -7 -7 -7 -7 -7 -7 -7 -7 -8 -8 -8 -8 -8 -8 -8 -8 -8 -8 -8 -8 -8 -9 -8 -8 -8 -7 -7 -6 -6 -6 -6 -6 -5
-6 -6 -6 -6 -7 -7 -7 -7 -7 -8 -8 -8 -8 -8 -8 -8 -8 -8 -8 -9 -9 -8 -8 -8 -9 -9 -8 -8 -8 -8 -7 -7 -7 -7 -7 -6 -6 -6
-7 -7 -7 -7 -7 -7 -8 -8 -8 -8 -9 -9 -9 -9 -9 -9 -9 -9 -9 -9 -9 -9 -9 -9 -9 -8 -8 -8 -8 -8 -8 -7 -7 -7 -7 -7 -6 -6
-7 -7 -8 -8 -8 -8 -8 -9 -9 -9 -9 -9 -9 -10 -10 -9 -9 -9 -9 -9 -9 -9 -9 -9 -9 -8 -8 -8 -8 -8 -8 -7 -7 -7 -7 -7 -7 -6
-8 -8 -8 -8 -9 -9 -9 -9 -10 -10 -10 -10 -10 -10 -10 -10 -10 -10 -10 -10 -10 -10 -10 -9 -9 -9 -9 -9 -8 -8 -8 -8 -8 -7 -7 -7 -7 -7
-8 -9 -9 -9 -9 -10 -10 -10 -10 -10 -11 -11 -11 -10 -10 -10 -10 -10 -10 -10 -10 -10 -10 -10 -10 -10 -10 -9 -9 -8 -8 -8 -8 -8 -8 -7 -7 -7
-9 -9 -10 -10 -10 -10 -11 -11 -11 -11 -11 -11 -11 -11 -11 -10 -10 -10 -10 -10 -10 -10 -10 -10 -10 -10 -10 -10 -9 -9 -8 -8 -8 -8 -8 -8 -7 -7
-10 -10 -10 -10 -11 -11 -11 -11 -11 -11 -11 -11 -11 -11 -11 -11 -11 -10 -10 -10 -10 -10 -10 -10 -10 -10 -10 -10 -10 -9 -9 -8 -8 -8 -8 -8 -8 -7
-10 -10 -11 -11 -11 -11 -11 -12 -12 -12 -12 -12 -12 -12 -11 -11 -11 -11 -10 -10 -10 -10 -10 -10 -10 -10 -10 -10 -10 -9 -9 -9 -8 -8 -8 -8 -7 -7
Wind_Speed
8 8 8 8 8 8 9 9 9 11 13 12 9 9 12 16 18 19 20 21 23 25 25 24 24 25 26 26 27 27 28 28 28 28 28 28 29 29
7 9 10 9 9 9 9 10 11 13 14 12 13 15 15 16 20 21 21 24 24 24 24 24 25 26 26 27 27 27 27 28 28 28 28 28 28 28
9 10 11 11 10 10 10 10 11 12 16 16 14 15 17 17 17 19 20 20 19 22 24 25 26 26 26 27 27 27 26 26 26 26 27 28 28 27
11 12 12 11 13 12 11 12 12 13 15 19 16 15 17 17 17 17 16 18 19 22 24 26 27 26 26 26 26 26 26 26 26 25 25 25 26 25
12 13 13 13 14 12 13 13 13 13 14 16 17 15 15 14 16 16 17 15 17 19 22 24 24 25 25 26 26 25 25 24 24 23 23 24 23 23
13 14 14 14 15 15 14 15 14 14 15 15 15 15 14 15 14 14 14 13 13 15 18 20 22 24 24 24 24 23 23 23 23 23 23 23 23 23
14 14 15 16 18 17 15 15 15 14 14 14 15 15 15 14 13 13 14 14 15 13 14 13 14 14 15 19 20 20 21 22 22 23 23 23 22 22
15 15 15 16 18 21 23 23 21 18 16 15 15 16 18 16 14 13 13 15 14 11 12 14 13 14 14 13 18 20 21 22 22 22 22 22 22 21
16 15 14 14 17 16 18 21 21 23 23 19 19 19 19 17 17 17 16 16 15 13 13 15 14 14 13 14 20 21 21 22 21 21 21 20 20 20
16 16 16 16 15 16 16 17 17 18 19 17 16 18 18 18 17 16 16 14 14 13 12 13 13 13 13 12 17 18 18 17 17 17 17 17 17 17
15 15 16 16 19 20 18 18 18 17 18 22 23 23 25 24 19 12 11 12 13 12 10 9 11 12 12 12 11 13 14 14 14 15 15 14 14 14
13 14 16 18 20 21 17 17 18 17 16 16 17 18 17 17 18 13 11 11 12 9 7 7 10 9 8 8 8 9 10 12 14 14 13 12 12 9
13 12 12 18 20 22 21 18 20 20 16 15 13 12 11 10 10 9 8 9 10 10 8 7 8 9 8 9 11 10 9 9 9 9 9 9 9 8
14 13 14 20 22 24 20 20 23 21 13 12 12 11 10 10 8 8 8 8 10 12 11 10 8 9 10 12 10 9 8 8 8 7 6 7 7 7
15 19 22 25 24 20 20 21 18 13 11 11 12 11 10 9 8 7 8 8 10 10 11 11 10 9 9 10 10 10 9 8 6 5 5 5 5 4
14 17 21 22 19 18 17 14 11 10 11 11 11 10 9 8 8 8 8 7 7 8 7 8 9 9 9 10 10 10 9 6 6 6 5 5 5 4
15 13 12 12 11 10 10 10 9 9 10 9 10 10 9 9 8 7 7 7 7 8 7 6 6 7 9 9 9 9 8 7 6 5 5 5 5 4
18 13 13 13 12 11 11 10 9 9 9 9 9 9 9 9 8 7 7 7 8 7 7 6 6 6 5 6 7 7 6 6 5 5 5 5 5 4
15 13 13 12 12 11 11 10 10 10 9 9 9 9 9 9 8 8 7 7 7 7 7 5 5 5 6 6 2 3 5 5 5 5 4 5 5 5
11 12 12 12 11 11 10 10 10 9 9 9 9 9 9 9 8 8 7 7 7 7 7 6 5 5 6 6 5 4 6 6 5 5 5 5 5 6
12 12 12 11 11 11 11 11 10 10 10 9 9 9 9 8 8 8 8 9 8 7 7 6 4 5 5 5 6 5 4 4 6 5 5 5 5 4
12 12 12 11 11 11 11 10 10 9 9 9 9 9 8 8 9 9 8 7 7 7 7 6 4 4 4 5 7 6 6 5 5 6 7 6 4 3
12 12 12 11 11 10 10 10 11 10 9 9 9 9 8 8 8 8 8 7 7 7 6 6 5 4 5 6 6 6 6 6 5 4 4 4 6 8
Wind_Direction
268 269 269 270 269 269 270 271 277 291 296 297 296 294 297 297 298 299 298 297 299 298 297 296 295 294 293 292 290 288 286 284 283 281 279 276 274 273
267 269 270 271 272 269 267 267 266 272 281 286 292 293 296 294 294 296 295 296 294 293 294 295 295 294 293 292 290 288 286 284 282 280 278 277 275 274
268 268 271 274 274 273 271 269 268 270 277 285 288 293 294 293 294 294 294 294 294 293 294 295 295 294 292 291 290 288 287 286 285 282 280 278 276 276
272 272 273 275 273 273 272 271 272 272 277 286 290 293 293 293 292 292 292 291 291 293 294 294 294 293 292 291 290 289 288 287 286 285 284 282 280 278
272 273 274 275 275 275 274 275 275 276 276 281 287 290 291 292 292 290 289 290 291 292 293 293 293 293 292 291 290 289 289 288 288 286 285 283 282 280
271 270 271 271 272 276 277 277 277 277 276 278 283 287 289 290 289 290 292 292 292 294 293 292 292 292 291 290 289 288 287 287 286 285 282 280 279 277
272 270 269 267 270 272 274 276 276 275 277 278 281 286 287 290 289 291 291 293 293 294 292 292 294 294 295 292 289 286 286 286 285 283 280 278 276 273
276 276 274 272 271 272 273 275 275 277 279 279 281 282 285 288 289 289 290 292 293 294 293 294 294 291 290 289 289 290 289 287 285 282 280 279 276 273
278 279 278 277 278 278 280 280 278 275 274 275 277 280 285 287 289 287 285 284 287 292 295 290 290 289 291 290 291 290 289 288 285 283 282 280 278 275
276 277 279 280 280 281 282 280 277 275 273 272 272 276 279 282 281 281 284 286 286 285 284 287 291 293 297 296 295 294 296 296 294 291 287 284 280 278
277 276 276 278 280 283 283 282 282 281 277 273 272 275 277 279 281 284 285 288 290 291 290 286 293 301 300 295 294 298 301 301 301 301 296 290 285 282
281 278 275 276 280 284 284 284 284 286 287 286 282 280 279 279 280 276 278 281 286 290 290 291 297 307 301 295 304 309 305 301 302 300 297 293 290 284
283 283 281 282 283 285 285 283 283 288 289 288 286 283 278 273 270 267 262 262 271 275 284 293 290 293 287 294 302 301 302 306 305 301 295 290 287 287
283 284 284 287 288 287 286 283 287 292 289 287 285 283 281 278 274 270 260 257 260 269 279 283 279 283 287 291 296 301 306 305 302 301 303 303 291 281
281 283 287 289 291 289 285 287 290 288 284 283 284 284 284 284 281 275 265 257 258 263 267 267 267 274 277 282 288 295 302 303 303 306 311 313 310 302
284 285 288 287 283 281 283 284 280 277 278 280 283 285 285 281 276 273 272 273 274 276 266 264 268 272 275 278 282 288 293 294 304 306 307 305 299 293
292 290 287 285 282 278 279 280 279 277 278 277 279 282 282 279 276 273 268 270 272 282 288 284 277 274 269 273 278 282 287 290 293 300 304 301 298 293
293 288 286 286 286 286 286 283 280 279 278 278 278 280 280 278 278 274 265 264 269 276 283 290 298 297 278 248 240 274 286 293 300 300 294 295 301 309
287 282 282 284 285 285 284 281 279 280 280 278 277 277 277 275 274 273 268 264 267 273 277 281 283 287 294 297 273 252 296 307 306 301 297 297 300 309
277 278 280 281 282 282 282 280 276 277 276 274 275 274 274 272 271 270 268 265 269 274 276 271 266 270 279 295 302 297 298 297 302 305 307 306 300 293
278 278 278 279 280 279 280 278 273 272 274 274 275 275 272 269 268 267 268 265 263 267 270 273 275 280 278 275 273 274 288 294 298 296 301 302 301 299
277 278 278 277 278 279 278 275 273 270 272 271 273 273 270 268 266 265 264 263 260 263 270 274 270 264 254 259 274 286 295 303 297 286 274 274 293 309
277 278 277 276 275 275 274 271 269 270 271 270 272 272 270 268 265 263 262 257 257 260 264 269 266 255 254 261 272 280 288 296 299 301 295 284 278 280
Height
1507 1505 1502 1500 1497 1494 1491 1488 1485 1477 1471 1469 1467 1463 1459 1455 1451 1447 1442 1439 1435 1432 1429 1426 1423 1420 1418 1416 1414 1413 1411 1410 1409 1409 1408 1408 1408 1409
1502 1500 1497 1494 1491 1488 1485 1482 1479 1474 1467 1462 1460 1458 1453 1449 1445 1440 1436 1432 1428 1425 1422 1419 1416 1413 1411 1408 1406 1404 1403 1402 1401 1400 1400 1400 1400 1400
1497 1494 1492 1489 1486 1482 1479 1476 1472 1468 1461 1454 1454 1450 1446 1442 1438 1434 1430 1426 1422 1419 1415 1412 1409 1406 1403 1401 1398 1396 1395 1394 1392 1392 1391 1391 1391 1391
1491 1488 1485 1482 1479 1476 1472 1469 1465 1462 1457 1448 1445 1443 1439 1436 1431 1427 1423 1420 1416 1412 1409 1405 1401 1398 1395 1393 1390 1388 1387 1385 1384 1383 1382 1382 1382 1382
1485 1482 1479 1476 1472 1469 1465 1462 1458 1454 1450 1444 1438 1436 1432 1429 1425 1421 1417 1413 1409 1406 1402 1398 1394 1391 1388 1385 1382 1380 1378 1377 1376 1375 1374 1374 1374 1374
1478 1475 1471 1468 1465 1461 1458 1454 1451 1447 1443 1438 1432 1429 1426 1423 1419 1415 1410 1407 1403 1400 1396 1392 1388 1384 1381 1377 1375 1372 1370 1369 1367 1366 1366 1366 1365 1366
1470 1467 1463 1460 1457 1454 1450 1446 1443 1439 1436 1431 1426 1422 1419 1416 1413 1409 1405 1400 1397 1394 1389 1386 1382 1378 1375 1371 1368 1365 1363 1361 1360 1359 1358 1358 1358 1358
1462 1459 1455 1452 1448 1445 1442 1438 1436 1432 1428 1425 1420 1416 1412 1410 1407 1404 1399 1395 1389 1388 1384 1379 1377 1371 1368 1365 1362 1359 1356 1354 1352 1351 1351 1350 1350 1351
1454 1451 1447 1444 1440 1436 1432 1429 1426 1423 1421 1418 1413 1409 1406 1404 1401 1397 1393 1389 1384 1381 1378 1372 1370 1365 1362 1359 1355 1352 1349 1347 1345 1344 1344 1343 1343 1344
1446 1443 1439 1435 1432 1428 1424 1420 1417 1414 1412 1409 1405 1401 1399 1396 1394 1390 1386 1382 1378 1375 1373 1367 1363 1360 1357 1353 1350 1346 1344 1341 1339 1338 1337 1337 1337 1337
1437 1434 1430 1427 1423 1420 1417 1412 1408 1405 1404 1401 1398 1394 1391 1389 1387 1384 1380 1376 1371 1369 1367 1363 1359 1355 1351 1348 1345 1342 1339 1337 1335 1333 1332 1331 1331 1331
1428 1425 1422 1418 1415 1413 1409 1405 1401 1398 1395 1392 1389 1386 1383 1381 1379 1377 1373 1370 1367 1363 1361 1359 1355 1352 1346 1343 1341 1339 1336 1333 1331 1329 1327 1326 1326 1326
1419 1416 1413 1411 1407 1405 1402 1398 1394 1391 1387 1384 1380 1377 1375 1372 1370 1369 1366 1364 1361 1358 1357 1354 1351 1348 1346 1341 1337 1335 1333 1330 1327 1325 1323 1322 1322 1322
1411 1408 1405 1402 1399 1396 1393 1390 1387 1384 1380 1376 1373 1370 1368 1365 1363 1361 1359 1357 1355 1353 1351 1349 1346 1344 1341 1338 1335 1332 1329 1327 1324 1322 1321 1320 1319 1319
1404 1400 1397 1394 1390 1387 1384 1381 1379 1375 1372 1369 1366 1363 1361 1359 1356 1354 1352 1351 1349 1347 1345 1343 1341 1339 1338 1335 1332 1329 1327 1324 1323 1321 1319 1318 1317 1317
1396 1392 1388 1385 1381 1378 1375 1373 1370 1368 1365 1362 1359 1357 1355 1353 1350 1349 1347 1345 1343 1342 1340 1339 1337 1335 1333 1331 1329 1326 1324 1323 1321 1319 1318 1316 1315 1314
1388 1384 1380 1377 1373 1370 1367 1365 1362 1360 1357 1355 1353 1351 1349 1347 1345 1344 1342 1340 1339 1337 1335 1334 1333 1331 1329 1327 1325 1323 1322 1320 1319 1317 1316 1315 1314 1313
1380 1375 1372 1369 1366 1363 1360 1358 1355 1353 1351 1349 1347 1345 1343 1342 1340 1339 1337 1336 1335 1333 1332 1330 1329 1327 1326 1323 1323 1320 1319 1318 1317 1316 1315 1313 1313 1312
1372 1367 1364 1361 1359 1356 1353 1351 1348 1346 1344 1343 1341 1339 1338 1337 1335 1334 1333 1332 1331 1329 1328 1327 1326 1324 1324 1322 1320 1319 1318 1316 1315 1314 1313 1312 1311 1310
1363 1360 1357 1354 1351 1348 1346 1344 1341 1340 1338 1336 1335 1334 1332 1331 1330 1329 1328 1327 1327 1325 1324 1323 1323 1322 1321 1320 1318 1316 1316 1314 1314 1313 1312 1310 1309 1308
1355 1352 1349 1346 1343 1341 1339 1337 1335 1333 1332 1330 1329 1328 1327 1326 1325 1324 1324 1323 1322 1321 1321 1320 1319 1318 1317 1317 1316 1314 1314 1313 1312 1311 1310 1309 1308 1307
1346 1343 1341 1338 1336 1333 1331 1329 1328 1326 1325 1324 1323 1322 1321 1320 1320 1319 1319 1318 1318 1317 1317 1316 1315 1315 1314 1314 1313 1312 1311 1311 1310 1309 1309 1308 1308 1307
1338 1335 1332 1330 1328 1326 1324 1322 1321 1320 1319 1318 1317 1316 1316 1315 1315 1314 1314 1314 1314 1313 1313 1312 1312 1311 1311 1311 1310 1310 1309 1309 1308 1308 1307 1306 1306 1305